Location: Le Vaud
(46.4779°N, 6.2346°E)
Time: 19:01:31
(UTC+00:00)

STARLINK-1116 - Pass Details

Date: 18 February 2020
Orbit: 548 x 551 km, 53.0° (Epoch: 03 April)

Event Time Altitude Azimuth Distance (km) Brightness Sun altitude
Exits shadow 05:43:18 12° 267° (W) 1,697 5.5 -9.5°
Maximum altitude 05:46:59 48° 341° (NNW) 745 4.1 -8.9°
Drops below altitude 10° 05:51:06 10° 56° (ENE) 1,866 7.1 -8.2°
Sets 05:53:26 0° 63° (ENE) 2,767 8.2 -7.8°
